Weather in Ivnya

Russia / Belgorod Oblast     51°03′43″N   36°08′12″E
temp.,
°C
wind,
m/s
gust,
m/s
humid.,
%
clouds,
%
prec.,
mm/h
press.,
hPa
HPBL,
m
15 april, thu
thu1500:00+11n2482100 0.1 101390
03:00+10ssw358738 0.3 1013112
06:00+8ssw379681 0.0 1013170
09:00+11ssw457062 0.0 1014585
12:00+14s455481 0.0 10131482
15:00+15sse5647100 0.0 10121978
18:00+13sse566284 0.5 10121093
21:00+10se498196 1.2 1013341
16 april, fri
fri1600:00+7sse48925 0.1 1013300
03:00+7ese378982 0.1 1014242
06:00+6se489418 0.2 1015248
09:00+9sse687447 0.2 1015890
12:00+10sse676972 0.1 10161100
15:00+12sse565683 0.4 10161546
18:00+11sse5666100 0.3 1016772
21:00+8sse228489 0.6 101747
17 april, sat
sat1700:00+6sse229363 0.5 101839
03:00+6sw2394100 0.9 101866
06:00+5w119416 0.0 101920
09:00+9wnw2273100 0.0 1019732
12:00+11wsw4455100 0.1 10191588
15:00+10wsw565898 0.1 1019988
18:00+11w455436 0.0 10191445
21:00+7wsw367798 0.0 1020203
18 april, sun
sun1800:00+5sw358757 0.0 1020111
03:00+6sw3585100 0.0 1020270
06:00+5sw2486100 0.0 1019180
09:00+6sw2279100 0.0 1019253
12:00+9wnw226096 0.1 10191008
15:00+11nw225188 0.2 10191488
18:00+8n458194 0.3 1020378
21:00+7nne358557 0.6 1020190
19 april, mon
mon1900:00+5n33905 0.0 102147
03:00+4n34965 0.0 102088
06:00+4nne35965 0.0 1020112
09:00+9ne347870 0.0 1020724
12:00+10ne446689 0.2 10201124
15:00+10ene466695 0.3 1019889
18:00+10ene6971100 0.1 1019868
21:00+7ene713815 0.1 1019493